Vertical_Velocity
-0 1 2 3 -0 1 1 2 0 1 1 1 1 -0 -0 1 1 0 -0 2 1 -1 -1 -1 -1 0 2 2 -0 2 -2 -0 -1 -3 -3 0 -1 -1 0 2 3 -0 -2 6 1 -2 -3 3 -3 1 -3 -1 -6 -1
-1 5 4 2 1 2 2 1 -0 1 0 0 -0 1 0 -0 1 0 -0 0 0 -1 0 -1 -1 2 -0 -1 1 -2 -0 2 -2 -0 1 -1 -1 -1 2 4 -0 0 -3 -1 -3 5 -3 -6 2 2 3 3 -1 2
7 2 1 2 0 2 2 1 1 0 1 0 0 1 1 1 -0 0 -1 -0 0 -0 -1 -1 -1 1 2 3 -0 1 -0 -0 1 -0 -1 -1 -2 1 1 3 -0 4 2 1 -9 17 2 -4 -3 3 -2 -2 3 -0
1 -2 -1 -0 2 3 2 1 0 2 0 -0 -1 -1 0 1 -1 -0 -0 -1 1 0 -2 -0 -2 -1 1 1 3 1 2 2 0 -0 -1 -0 -1 2 4 -5 4 1 1 -0 -3 4 -6 5 -3 -0 -4 -4 -5 -6
1 0 3 1 -1 1 1 1 0 0 0 -0 0 -1 -0 -1 -0 1 -1 -1 0 -2 2 -1 -3 0 0 0 -1 -1 1 3 2 -1 0 -1 -0 -9 -0 -0 12 1 6 -9 -3 -7 -8 1 -6 -4 0 1 0 1
3 2 3 0 2 1 2 1 1 1 1 1 1 0 -1 -1 1 -1 -2 1 0 -2 -1 -3 1 -1 -2 1 1 0 1 -1 -2 -1 -1 4 5 -13 -9 1 27 7 -1 -8 -1 -1 -0 -2 -5 -1 0 -0 -0 2
1 6 5 -1 1 1 -4 -3 -1 0 1 0 -0 -1 -1 -0 0 -3 2 2 -2 -1 -1 -4 -3 1 -1 1 2 0 0 2 -4 -3 0 -1 1 -12 -7 7 9 1 0 2 2 -2 -0 1 -0 -1 -1 0 1 -1
3 -1 -0 -1 5 1 -2 -1 -2 -0 1 -0 -1 -0 -1 -0 -1 -0 -0 -0 -0 -3 -3 -7 1 6 1 3 -1 2 1 -3 -3 -5 6 3 -7 -2 -10 18 1 2 -2 1 -2 1 -1 -1 -0 -1 1 -0 -1 0
-3 -2 -0 0 -2 -2 -2 1 1 -1 -3 -4 -0 1 0 0 0 -1 -1 0 -3 -6 -5 4 6 3 5 7 2 1 -1 -6 -5 -0 3 -9 4 -1 8 0 -1 3 1 -0 -3 -1 4 4 0 0 -3 -2 -2 -2
1 0 -1 -2 0 -1 -0 1 1 1 2 2 1 -2 2 -0 2 2 -3 -5 -4 -3 -5 1 8 -4 2 5 5 -0 -0 -3 -13 4 -4 -6 -8 13 0 0 -2 2 -5 -2 -1 -4 -0 -0 -3 -4 -1 1 2 2
-0 1 -2 -1 -2 -1 -0 -0 -1 1 0 1 3 3 1 1 -1 -2 -9 -2 0 -1 0 6 4 6 9 1 3 -3 -6 -5 -11 -0 -2 -11 4 7 3 4 -2 3 5 4 1 0 -2 0 -2 3 2 1 2 -1
2 3 1 -3 -0 -0 -1 -1 0 1 2 2 4 1 -2 -3 1 -10 -6 -5 -1 -7 -2 8 9 4 0 4 -1 -2 -4 -9 -9 5 -5 -8 9 -1 0 -2 1 0 1 5 6 3 0 -1 -0 1 0 2 1 2
-1 -1 3 1 -1 1 1 2 1 0 0 0 -0 5 6 4 -7 -10 -3 2 3 6 6 5 5 1 1 5 -1 -0 -4 -6 7 -7 -10 1 -3 0 -8 0 1 -1 -1 2 3 3 -2 2 4 5 4 0 -0 1
-1 -1 -1 1 3 0 3 3 2 2 1 1 5 0 1 -5 -7 0 7 3 0 1 0 1 1 -1 8 1 2 3 -2 -1 -10 -5 -2 4 -1 -4 -1 -3 -1 -1 -3 -3 -2 0 6 7 3 2 3 1 2 1
-0 -3 -3 -2 0 -1 0 2 1 2 3 2 2 -2 -2 2 0 -0 -2 -0 0 -1 -1 -0 1 4 6 3 4 3 -0 1 -1 -11 -7 1 7 -7 -2 -4 0 -2 -3 -1 -0 1 3 3 4 3 1 -2 -3 -1
-1 1 -1 -1 -2 1 -3 -0 3 2 -2 0 -2 -2 -1 4 -1 -2 -2 -2 -2 -0 -2 -1 -2 -5 2 -2 1 1 6 -2 -2 -1 -4 -6 -4 1 3 6 12 1 0 4 3 1 2 4 3 0 -1 -4 -2 -3
-0 -1 2 -0 -5 -2 1 3 -2 2 3 3 2 -2 -1 1 -1 1 2 1 0 1 2 2 1 3 3 1 5 2 -1 3 8 9 9 8 6 6 8 8 8 6 4 5 5 2 -2 -3 -4 -1 1 0 0 -0
1 1 -3 -5 -3 -2 2 2 2 0 -3 -3 2 1 -2 1 0 -3 2 1 -1 -2 -0 -1 0 5 4 3 1 3 4 5 5 8 7 3 4 2 1 3 3 2 -3 -8 -7 -5 -2 0 -0 -1 -1 -0 3 1
0 1 -0 2 2 2 2 -1 -3 -8 -4 -0 -4 -3 -4 -3 -0 -3 -1 -0 -2 -3 -1 -1 -5 -1 -2 3 4 6 6 3 3 7 3 2 5 -0 -4 -6 -7 -5 -2 -0 -0 1 1 -0 -1 -0 0 0 -2 1
-3 -3 -1 -1 1 -3 -2 -0 -2 -1 -1 -2 -2 -3 -5 -0 -2 -3 -3 -3 -1 1 -1 -1 -2 3 1 4 -0 -0 1 1 -0 2 3 2 2 4 3 1 1 -0 1 -0 -0 -0 -0 3 2 -5 -3 -3 -5 1
-1 -0 -1 -1 -5 -2 -3 1 -3 1 -1 0 -2 -2 -4 -4 -7 -4 -3 -5 -2 -3 -5 -3 -1 -1 -3 -2 -3 -5 -2 -0 -0 -1 -4 -4 -6 -6 -6 -4 -2 -1 -0 1 1 5 3 0 -3 -1 -2 -1 -1 -0
-2 -0 -1 2 2 1 -1 2 0 -2 -3 -1 -4 -5 -4 -3 -3 0 -1 -0 -0 -2 -2 -1 -0 -3 -3 -4 -2 4 3 -2 -5 -4 -4 -4 -2 -3 -4 -3 -1 1 -1 -4 -3 -4 -2 -1 -1 -2 -4 -1 2 0
-4 -2 -2 -4 -2 -3 -7 -3 -0 -2 -3 1 -2 -0 -0 1 -2 -2 -2 -2 -4 1 -2 -1 -1 -2 -2 3 0 -1 -3 -5 -5 -6 -5 -4 -1 2 1 -1 -4 -1 -0 -0 -1 -1 -2 -2 -1 -1 -2 -0 -1 -1
-5 -2 -4 -5 -4 -5 0 3 -0 0 -0 1 2 2 0 -2 -1 -2 -3 -2 3 -1 1 1 -1 1 1 0 -1 -2 -1 -2 -3 -3 -2 0 1 0 -1 -2 -4 -2 -4 -3 -1 -0 -1 -1 -0 1 -1 -2 -1 -3
-2 -3 -4 -0 -5 -0 2 1 3 1 1 3 2 2 1 -1 -1 -1 -2 8 1 -5 -6 0 2 -2 -2 -1 -3 -1 -1 -2 -2 -6 -4 1 2 2 -0 -3 -3 1 -4 1 1 -0 1 -0 -0 -2 -1 -3 -2 -1
-4 -5 -4 3 4 -1 -1 2 4 5 5 4 1 0 3 -1 -2 -6 10 -0 -5 -5 -0 -0 -2 -2 0 0 0 1 2 -1 -2 -3 -3 3 0 -1 -1 2 6 6 -1 -3 -3 0 1 0 0 -0 3 -1 -2 -3
-3 -2 0 -3 -2 -0 -0 2 3 1 3 1 3 1 -2 -4 -2 3 1 -1 2 -1 -2 -2 -1 -3 -3 -6 -1 -2 -2 -3 -3 -3 -1 -1 -1 -0 -0 -0 1 2 3 1 1 -1 1 4 4 3 1 5 -3 5
-4 2 1 5 7 12 10 13 12 3 3 2 -2 8 9 2 2 -3 -2 -1 1 2 -2 -4 -5 -2 -2 -1 1 2 1 -0 -4 2 4 1 -1 -1 -2 -2 -2 -1 -0 -3 -2 -3 -3 -3 -3 -1 2 3 3 4
4 1 1 -0 -2 1 4 3 1 1 3 5 6 4 1 0 -2 -2 -2 -1 -1 1 0 1 1 -1 1 2 1 2 2 3 2 -5 -8 -6 -3 -8 -9 -6 -4 -3 -1 1 -5 -7 -2 -3 -3 -3 -3 -0 1 3
-5 0 2 5 6 4 3 2 1 -0 -2 -3 -3 -2 -1 -0 1 1 1 1 -3 -3 0 0 -1 -1 -2 -0 1 2 0 1 1 1 1 1 -0 2 2 2 1 -0 -1 0 2 3 -3 -5 -3 -2 -4 -4 -2 -1
2 1 0 -1 -3 -2 -2 -1 -1 -1 0 0 1 1 3 1 1 -0 3 1 -2 -1 -1 -1 -0 0 -0 0 -3 -5 -2 1 0 2 1 -2 0 0 1 -1 0 0 0 -1 -1 -1 2 0 -0 1 0 0 -0 -0
-2 -2 -2 -0 -1 1 -0 1 -0 1 0 -1 -0 2 1 -1 -3 1 -0 -3 -2 -1 0 -1 -1 -3 -0 -2 -2 1 -1 -1 0 0 -1 -1 -1 0 1 -1 -1 0 -0 -1 -1 -1 -1 -2 -1 -1 -1 -0 0 1
0 1 0 0 0 -0 0 1 -0 0 1 -1 -1 -2 -0 -3 -2 -2 -3 -2 -1 -1 -3 -1 -1 -1 0 -2 -0 -1 -2 -1 -0 -0 1 0 0 1 1 -1 -0 1 -1 -1 -2 -1 -1 -2 -2 -2 -2 -1 -0 0
Height
5539 5549 5559 5569 5581 5593 5603 5613 5622 5630 5637 5644 5650 5657 5664 5671 5678 5685 5693 5698 5704 5709 5714 5717 5722 5726 5729 5732 5734 5736 5737 5739 5739 5740 5740 5741 5740 5740 5741 5742 5742 5742 5740 5740 5738 5736 5735 5732 5728 5726 5722 5718 5713 5709
5536 5546 5557 5569 5581 5593 5603 5612 5621 5628 5636 5643 5649 5655 5662 5668 5674 5681 5688 5693 5698 5704 5708 5711 5715 5719 5722 5724 5727 5727 5729 5731 5730 5732 5732 5732 5732 5732 5733 5732 5733 5732 5731 5729 5730 5727 5724 5720 5718 5715 5710 5707 5703 5698
5540 5550 5560 5572 5583 5593 5602 5611 5619 5627 5634 5641 5647 5654 5660 5666 5671 5676 5682 5687 5692 5697 5701 5704 5707 5711 5713 5717 5718 5719 5720 5721 5721 5722 5722 5722 5723 5724 5723 5724 5722 5723 5719 5719 5719 5718 5714 5710 5707 5702 5697 5693 5688 5683
5543 5552 5563 5573 5583 5592 5601 5609 5617 5625 5632 5639 5645 5651 5657 5663 5667 5672 5677 5682 5686 5690 5694 5697 5699 5702 5705 5707 5710 5711 5711 5712 5712 5712 5713 5714 5715 5714 5714 5713 5712 5713 5711 5708 5706 5705 5700 5698 5694 5689 5683 5679 5675 5670
5547 5556 5564 5573 5582 5590 5599 5607 5615 5622 5629 5636 5642 5648 5654 5659 5664 5668 5673 5677 5681 5685 5688 5691 5692 5695 5697 5699 5700 5701 5702 5702 5704 5705 5706 5705 5704 5704 5703 5702 5704 5705 5700 5697 5695 5691 5688 5686 5681 5677 5672 5668 5664 5658
5549 5557 5564 5572 5581 5590 5598 5605 5613 5619 5626 5632 5638 5644 5649 5655 5659 5662 5667 5671 5675 5679 5682 5684 5687 5688 5688 5689 5691 5692 5694 5695 5695 5695 5695 5695 5696 5695 5693 5694 5697 5693 5689 5685 5684 5680 5677 5673 5668 5664 5661 5657 5651 5646
5549 5557 5564 5571 5580 5587 5594 5602 5609 5616 5623 5628 5634 5640 5644 5649 5654 5658 5662 5667 5669 5671 5674 5676 5679 5680 5681 5683 5684 5684 5684 5685 5685 5685 5685 5685 5685 5683 5683 5684 5683 5678 5676 5675 5672 5669 5665 5660 5656 5652 5648 5644 5639 5632
5550 5557 5563 5570 5578 5585 5592 5599 5605 5611 5617 5623 5629 5635 5639 5643 5648 5652 5656 5659 5662 5665 5667 5668 5671 5676 5676 5676 5675 5675 5675 5675 5675 5675 5675 5675 5674 5671 5671 5675 5670 5667 5664 5662 5659 5655 5650 5646 5643 5639 5634 5629 5623 5618
5549 5555 5562 5570 5577 5583 5589 5594 5600 5606 5612 5618 5623 5628 5632 5637 5642 5646 5649 5652 5654 5658 5659 5661 5664 5667 5669 5669 5667 5667 5666 5666 5666 5666 5665 5664 5663 5662 5663 5660 5657 5654 5651 5649 5646 5643 5639 5635 5630 5626 5620 5615 5610 5604
5548 5554 5561 5567 5573 5578 5584 5590 5595 5600 5606 5611 5618 5622 5627 5630 5635 5638 5641 5644 5646 5648 5650 5654 5657 5657 5658 5659 5659 5658 5657 5656 5655 5656 5653 5652 5651 5653 5649 5647 5645 5643 5639 5635 5632 5630 5626 5621 5616 5611 5607 5602 5596 5589
5547 5553 5558 5565 5571 5577 5582 5586 5591 5596 5601 5606 5611 5616 5621 5623 5627 5630 5633 5636 5639 5641 5643 5646 5648 5648 5648 5649 5648 5647 5645 5643 5643 5644 5641 5641 5641 5641 5638 5636 5633 5630 5627 5624 5620 5616 5613 5608 5603 5598 5593 5586 5580 5573
5545 5551 5556 5561 5567 5573 5578 5582 5586 5591 5596 5601 5606 5610 5613 5616 5620 5623 5624 5627 5629 5631 5633 5637 5640 5639 5639 5638 5636 5634 5633 5632 5631 5631 5629 5628 5629 5626 5625 5623 5620 5617 5614 5611 5607 5602 5597 5592 5588 5582 5576 5570 5564 5556
5542 5548 5553 5558 5563 5568 5573 5578 5582 5586 5590 5595 5599 5604 5607 5609 5611 5614 5615 5618 5621 5623 5626 5626 5628 5628 5627 5627 5624 5623 5621 5620 5620 5619 5616 5616 5614 5612 5610 5608 5605 5602 5598 5596 5592 5586 5580 5575 5570 5565 5559 5553 5546 5539
5537 5542 5548 5553 5558 5562 5568 5571 5576 5581 5585 5588 5592 5594 5597 5599 5602 5605 5608 5611 5613 5614 5615 5615 5615 5616 5615 5614 5613 5611 5609 5607 5605 5605 5606 5604 5600 5596 5595 5592 5589 5585 5582 5578 5574 5570 5565 5559 5553 5548 5543 5537 5531 5524
5531 5537 5541 5545 5549 5554 5560 5564 5568 5572 5576 5579 5582 5584 5587 5590 5593 5596 5598 5600 5601 5602 5603 5604 5603 5603 5603 5601 5601 5599 5596 5594 5592 5590 5590 5589 5585 5579 5578 5576 5572 5567 5565 5561 5556 5553 5550 5546 5541 5533 5527 5521 5515 5507
5527 5530 5534 5538 5542 5545 5551 5555 5558 5562 5564 5568 5571 5574 5577 5580 5582 5585 5587 5588 5590 5591 5592 5591 5591 5590 5589 5587 5587 5585 5583 5580 5578 5576 5574 5573 5570 5566 5564 5561 5557 5551 5549 5546 5543 5540 5535 5530 5524 5518 5510 5503 5496 5489
5526 5529 5531 5534 5537 5539 5543 5547 5549 5551 5554 5558 5560 5562 5565 5567 5569 5572 5574 5576 5577 5578 5578 5578 5578 5578 5577 5575 5574 5572 5569 5568 5566 5563 5561 5559 5556 5554 5551 5548 5544 5541 5537 5532 5527 5522 5517 5511 5506 5500 5494 5487 5480 5473
5524 5526 5529 5532 5534 5537 5539 5541 5543 5545 5547 5549 5551 5553 5555 5558 5560 5561 5562 5563 5565 5564 5564 5564 5563 5563 5562 5562 5562 5561 5559 5557 5554 5551 5549 5547 5544 5541 5537 5533 5529 5525 5521 5515 5510 5505 5500 5495 5489 5483 5478 5473 5467 5460
5522 5524 5526 5529 5531 5533 5536 5538 5540 5542 5544 5545 5545 5547 5548 5548 5549 5550 5550 5550 5551 5551 5551 5551 5550 5551 5550 5550 5548 5546 5544 5541 5539 5537 5534 5532 5528 5523 5519 5516 5512 5508 5505 5500 5495 5490 5484 5478 5473 5467 5462 5457 5452 5446
5518 5520 5522 5524 5526 5529 5530 5532 5533 5535 5535 5537 5538 5539 5540 5541 5541 5541 5542 5542 5541 5540 5539 5539 5539 5539 5538 5537 5535 5534 5532 5530 5527 5524 5521 5518 5515 5512 5508 5504 5499 5494 5489 5483 5479 5474 5469 5464 5458 5451 5446 5440 5435 5431
5509 5511 5513 5515 5518 5521 5523 5524 5525 5527 5528 5529 5530 5531 5531 5531 5531 5531 5531 5530 5529 5528 5528 5527 5527 5527 5526 5525 5523 5522 5521 5519 5516 5514 5511 5507 5503 5499 5494 5489 5484 5479 5474 5469 5465 5461 5454 5448 5443 5438 5432 5427 5420 5413
5500 5502 5504 5506 5509 5511 5513 5515 5516 5517 5519 5519 5519 5519 5520 5520 5519 5519 5519 5519 5518 5518 5518 5518 5518 5517 5517 5516 5515 5513 5511 5508 5506 5503 5499 5495 5489 5484 5478 5474 5470 5465 5459 5454 5449 5445 5440 5434 5427 5421 5415 5410 5403 5397
5491 5493 5494 5496 5498 5500 5503 5504 5505 5505 5507 5508 5508 5508 5508 5508 5508 5508 5509 5509 5509 5510 5510 5510 5509 5509 5509 5508 5506 5503 5500 5497 5493 5489 5484 5480 5475 5469 5463 5458 5453 5450 5445 5440 5434 5429 5423 5417 5411 5404 5398 5392 5386 5381
5477 5479 5480 5481 5484 5487 5490 5491 5492 5494 5495 5496 5497 5497 5498 5498 5499 5499 5500 5501 5501 5501 5501 5502 5501 5501 5500 5498 5495 5492 5488 5484 5479 5475 5471 5465 5460 5454 5448 5443 5438 5433 5427 5422 5418 5412 5406 5400 5393 5387 5381 5375 5370 5365
5462 5462 5464 5465 5467 5471 5473 5476 5479 5480 5483 5485 5487 5488 5489 5490 5491 5492 5493 5493 5492 5493 5493 5493 5492 5491 5489 5487 5483 5479 5474 5469 5463 5458 5455 5451 5445 5439 5433 5427 5422 5417 5411 5407 5401 5395 5389 5382 5376 5370 5364 5358 5354 5349
5444 5445 5448 5450 5453 5456 5459 5464 5467 5470 5473 5476 5478 5480 5482 5483 5484 5485 5486 5485 5484 5483 5483 5483 5481 5479 5477 5473 5470 5465 5460 5454 5449 5443 5439 5435 5429 5423 5418 5413 5408 5401 5394 5388 5383 5378 5372 5366 5359 5353 5348 5341 5336 5331
5441 5441 5443 5445 5449 5452 5455 5458 5461 5464 5467 5470 5472 5474 5475 5476 5477 5478 5477 5476 5475 5474 5472 5471 5468 5465 5462 5458 5454 5449 5443 5437 5432 5428 5422 5417 5411 5406 5401 5396 5390 5384 5378 5372 5365 5359 5354 5348 5342 5335 5330 5324 5318 5314
5445 5445 5446 5448 5449 5452 5454 5456 5458 5460 5462 5464 5466 5467 5467 5468 5469 5467 5467 5467 5466 5463 5460 5457 5454 5450 5446 5443 5438 5433 5427 5420 5414 5411 5406 5400 5394 5388 5383 5377 5371 5366 5360 5352 5346 5339 5333 5327 5321 5315 5310 5304 5299 5293
5447 5447 5447 5448 5449 5451 5453 5454 5455 5457 5458 5459 5460 5459 5460 5459 5459 5458 5457 5455 5453 5450 5447 5443 5439 5435 5432 5428 5422 5417 5412 5406 5400 5393 5388 5384 5378 5371 5365 5359 5354 5348 5342 5335 5327 5321 5316 5310 5303 5296 5290 5284 5277 5270
5447 5448 5449 5449 5450 5451 5452 5452 5453 5453 5454 5454 5454 5453 5452 5450 5448 5446 5443 5440 5437 5434 5431 5427 5423 5419 5414 5410 5406 5401 5396 5391 5385 5380 5374 5368 5362 5357 5351 5345 5339 5333 5327 5321 5315 5308 5300 5293 5286 5278 5269 5261 5254 5249
5448 5448 5448 5448 5448 5449 5448 5448 5448 5447 5446 5445 5444 5443 5441 5438 5435 5433 5429 5424 5421 5418 5415 5410 5406 5402 5398 5393 5388 5383 5379 5375 5369 5363 5357 5351 5346 5341 5336 5330 5325 5319 5314 5308 5302 5295 5287 5279 5271 5263 5254 5245 5238 5233
5444 5444 5444 5443 5443 5442 5441 5441 5439 5438 5437 5435 5433 5431 5427 5424 5420 5418 5413 5409 5406 5402 5398 5395 5390 5386 5382 5377 5372 5367 5362 5357 5352 5347 5342 5337 5332 5327 5322 5317 5312 5307 5301 5295 5289 5282 5275 5267 5259 5249 5240 5232 5226 5221
5438 5437 5436 5436 5434 5433 5432 5430 5429 5427 5425 5422 5420 5417 5414 5410 5406 5403 5399 5395 5391 5387 5383 5379 5375 5371 5366 5360 5356 5351 5346 5342 5337 5332 5328 5324 5319 5315 5311 5306 5301 5296 5290 5284 5278 5271 5264 5256 5248 5239 5230 5222 5216 5211